QPF
0.05 0.03 0.02 0.05 0.04 0.03 0.03 0.04 0.05 0.05 0.03 0.03 0.03 0.01 0.01 0.02 0.02 0.01 0.02 0.04 0.05 0.04 0.04 0.05 0.05 0.06 0.07 0.07 0.07 0.08 0.07 0.04 0.04 0.05 0.04 0.04 0.03 0.02 0.04 0.04 0.03 0.02 0.02 0.02 0.02 0.02 0.02 0.02 0.03
0.03 0.02 0.03 0.04 0.02 0.01 0.03 0.04 0.03 0.03 0.02 0.02 0.02 0.01 0.01 0.01 0.02 0.01 0.01 0.03 0.04 0.03 0.02 0.03 0.05 0.07 0.07 0.05 0.07 0.08 0.07 0.06 0.04 0.04 0.05 0.05 0.03 0.03 0.03 0.04 0.03 0.03 0.02 0.01 0.01 0.02 0.02 0.02 0.02
0.03 0.02 0.03 0.03 0.01 0.02 0.04 0.03 0.02 0.03 0.03 0.02 0.01 0.01 0.00 0.01 0.01 0.02 0.02 0.03 0.02 0.01 0.01 0.03 0.06 0.07 0.08 0.06 0.05 0.04 0.03 0.04 0.04 0.04 0.05 0.03 0.03 0.04 0.04 0.03 0.04 0.03 0.01 0.00 0.01 0.01 0.01 0.01 0.02
0.02 0.01 0.01 0.02 0.01 0.02 0.03 0.02 0.02 0.04 0.04 0.02 0.01 0.01 0.01 0.01 0.01 0.02 0.02 0.02 0.01 0.01 0.02 0.05 0.08 0.08 0.08 0.07 0.05 0.04 0.03 0.03 0.04 0.05 0.05 0.04 0.04 0.04 0.05 0.04 0.04 0.03 0.01 0.01 0.01 0.01 0.02 0.02 0.02
0.00 0.00 0.02 0.02 0.02 0.02 0.02 0.03 0.04 0.06 0.06 0.03 0.02 0.01 0.02 0.02 0.01 0.01 0.01 0.01 0.01 0.02 0.03 0.06 0.09 0.10 0.11 0.08 0.05 0.06 0.05 0.03 0.05 0.05 0.05 0.04 0.04 0.04 0.05 0.05 0.05 0.03 0.02 0.02 0.01 0.02 0.02 0.03 0.03
0.01 0.00 0.01 0.01 0.02 0.02 0.02 0.03 0.04 0.06 0.05 0.02 0.02 0.01 0.01 0.01 0.01 0.02 0.01 0.02 0.03 0.02 0.02 0.03 0.05 0.08 0.10 0.11 0.08 0.08 0.08 0.06 0.06 0.04 0.04 0.04 0.05 0.05 0.05 0.06 0.05 0.04 0.03 0.02 0.02 0.02 0.02 0.03 0.03
0.00 0.01 0.01 0.01 0.01 0.02 0.01 0.01 0.01 0.02 0.03 0.02 0.01 0.01 0.01 0.01 0.01 0.02 0.04 0.03 0.03 0.02 0.02 0.03 0.04 0.06 0.09 0.10 0.08 0.08 0.08 0.10 0.09 0.05 0.04 0.05 0.08 0.06 0.06 0.06 0.05 0.03 0.03 0.03 0.02 0.02 0.02 0.03 0.04
0.01 0.01 0.01 0.01 0.01 0.02 0.01 0.01 0.00 0.01 0.02 0.01 0.01 0.01 0.01 0.01 0.02 0.03 0.05 0.05 0.05 0.03 0.04 0.04 0.04 0.03 0.04 0.06 0.08 0.08 0.07 0.09 0.09 0.06 0.06 0.09 0.08 0.07 0.05 0.04 0.03 0.03 0.04 0.03 0.02 0.02 0.03 0.03 0.03
0.00 0.00 0.01 0.01 0.00 0.01 0.00 0.00 0.01 0.01 0.02 0.01 0.01 0.01 0.00 0.01 0.03 0.04 0.05 0.05 0.05 0.04 0.04 0.05 0.04 0.04 0.03 0.03 0.06 0.07 0.05 0.06 0.08 0.06 0.07 0.09 0.06 0.06 0.04 0.03 0.03 0.03 0.03 0.04 0.04 0.04 0.04 0.02 0.03
0.00 0.00 0.01 0.00 0.00 0.00 0.00 0.00 0.01 0.02 0.03 0.03 0.02 0.01 0.00 0.01 0.04 0.04 0.04 0.04 0.02 0.03 0.04 0.05 0.05 0.05 0.03 0.02 0.03 0.04 0.02 0.02 0.03 0.04 0.05 0.03 0.02 0.02 0.02 0.02 0.04 0.03 0.04 0.04 0.05 0.04 0.02 0.01 0.01
0.00 0.00 0.00 0.01 0.00 0.00 0.00 0.00 0.01 0.01 0.02 0.03 0.02 0.01 0.01 0.02 0.03 0.02 0.02 0.01 0.01 0.01 0.01 0.02 0.04 0.04 0.04 0.03 0.03 0.03 0.03 0.01 0.01 0.02 0.04 0.02 0.01 0.01 0.01 0.02 0.03 0.02 0.02 0.02 0.03 0.01 0.00 0.00 0.00
0.00 0.00 0.00 0.00 0.00 0.01 0.01 0.01 0.02 0.01 0.00 0.01 0.01 0.00 0.00 0.01 0.03 0.02 0.02 0.01 0.01 0.01 0.01 0.02 0.02 0.03 0.03 0.04 0.04 0.03 0.02 0.02 0.02 0.02 0.02 0.02 0.01 0.01 0.01 0.01 0.02 0.02 0.01 0.01 0.01 0.01 0.01 0.01 0.00
0.01 0.00 0.00 0.01 0.01 0.02 0.02 0.03 0.01 0.00 0.01 0.01 0.00 0.00 0.00 0.00 0.01 0.01 0.00 0.01 0.01 0.01 0.01 0.02 0.03 0.02 0.03 0.03 0.04 0.03 0.02 0.03 0.03 0.02 0.02 0.01 0.01 0.01 0.01 0.01 0.02 0.02 0.02 0.02 0.02 0.02 0.02 0.01 0.01
0.01 0.01 0.01 0.01 0.01 0.02 0.02 0.01 0.00 0.00 0.00 0.01 0.01 0.01 0.00 0.01 0.01 0.01 0.02 0.01 0.01 0.01 0.01 0.03 0.04 0.03 0.03 0.03 0.04 0.04 0.03 0.02 0.02 0.02 0.02 0.02 0.01 0.01 0.01 0.01 0.02 0.02 0.02 0.02 0.02 0.02 0.02 0.01 0.01
0.01 0.01 0.02 0.02 0.02 0.01 0.01 0.01 0.00 0.00 0.00 0.01 0.02 0.01 0.01 0.01 0.02 0.02 0.03 0.02 0.01 0.01 0.01 0.03 0.03 0.02 0.02 0.04 0.04 0.04 0.03 0.03 0.03 0.02 0.03 0.02 0.02 0.01 0.02 0.02 0.03 0.03 0.03 0.02 0.01 0.01 0.01 0.01 0.00
0.01 0.01 0.01 0.02 0.01 0.01 0.01 0.01 0.01 0.00 0.00 0.00 0.01 0.01 0.01 0.01 0.01 0.02 0.03 0.03 0.03 0.02 0.02 0.02 0.02 0.02 0.03 0.05 0.04 0.04 0.04 0.03 0.03 0.02 0.01 0.02 0.02 0.03 0.04 0.03 0.03 0.03 0.02 0.01 0.01 0.01 0.01 0.00 0.00
0.01 0.00 0.01 0.03 0.01 0.02 0.01 0.01 0.01 0.00 0.00 0.00 0.00 0.01 0.02 0.02 0.01 0.02 0.03 0.03 0.03 0.03 0.03 0.02 0.02 0.03 0.05 0.05 0.06 0.06 0.06 0.05 0.03 0.02 0.01 0.02 0.02 0.03 0.05 0.03 0.03 0.02 0.02 0.01 0.01 0.01 0.00 0.01 0.01
0.00 0.00 0.01 0.04 0.01 0.01 0.01 0.01 0.01 0.00 0.01 0.00 0.00 0.01 0.02 0.01 0.02 0.02 0.02 0.03 0.03 0.04 0.05 0.04 0.03 0.04 0.05 0.06 0.09 0.08 0.06 0.05 0.03 0.03 0.02 0.02 0.02 0.02 0.03 0.03 0.02 0.01 0.02 0.02 0.01 0.01 0.01 0.01 0.01
0.00 0.00 0.00 0.02 0.00 0.00 0.01 0.01 0.00 0.00 0.00 0.00 0.00 0.01 0.01 0.01 0.01 0.01 0.01 0.02 0.03 0.04 0.04 0.04 0.05 0.05 0.04 0.06 0.07 0.09 0.08 0.06 0.04 0.03 0.03 0.02 0.02 0.02 0.02 0.02 0.02 0.02 0.02 0.02 0.01 0.01 0.01 0.01 0.01
0.00 0.00 0.00 0.00 0.00 0.00 0.01 0.00 0.00 0.00 0.00 0.00 0.00 0.00 0.00 0.01 0.01 0.02 0.02 0.02 0.02 0.03 0.04 0.04 0.04 0.04 0.03 0.04 0.06 0.08 0.08 0.06 0.04 0.04 0.04 0.02 0.02 0.02 0.02 0.02 0.01 0.01 0.02 0.02 0.02 0.01 0.01 0.01 0.01
0.00 0.00 0.00 0.01 0.00 0.00 0.01 0.00 0.00 0.00 0.00 0.01 0.01 0.00 0.00 0.00 0.01 0.02 0.02 0.02 0.03 0.04 0.04 0.04 0.05 0.05 0.04 0.04 0.05 0.06 0.05 0.04 0.03 0.03 0.04 0.03 0.02 0.03 0.02 0.02 0.01 0.01 0.02 0.02 0.02 0.01 0.01 0.01 0.01
0.00 0.00 0.00 0.00 0.00 0.01 0.00 0.00 0.00 0.00 0.01 0.00 0.00 0.00 0.00 0.00 0.00 0.01 0.01 0.01 0.02 0.04 0.04 0.04 0.04 0.04 0.04 0.04 0.06 0.06 0.05 0.05 0.04 0.04 0.04 0.04 0.03 0.03 0.03 0.03 0.02 0.02 0.02 0.01 0.02 0.01 0.01 0.01 0.00
0.00 0.00 0.00 0.00 0.00 0.00 0.00 0.00 0.00 0.00 0.00 0.00 0.00 0.00 0.01 0.01 0.01 0.01 0.01 0.01 0.01 0.02 0.03 0.03 0.03 0.03 0.03 0.03 0.03 0.04 0.05 0.05 0.05 0.05 0.05 0.05 0.04 0.03 0.03 0.03 0.03 0.03 0.03 0.03 0.02 0.01 0.00 0.01 0.00
0.00 0.00 0.00 0.00 0.00 0.00 0.01 0.00 0.00 0.00 0.00 0.00 0.00 0.00 0.01 0.01 0.01 0.01 0.01 0.01 0.01 0.01 0.02 0.02 0.02 0.02 0.02 0.02 0.03 0.04 0.04 0.05 0.06 0.07 0.07 0.06 0.05 0.04 0.04 0.04 0.03 0.04 0.04 0.06 0.03 0.01 0.01 0.01 0.01
0.00 0.00 0.00 0.00 0.00 0.00 0.00 0.01 0.00 0.00 0.00 0.00 0.00 0.01 0.00 0.00 0.00 0.01 0.01 0.02 0.02 0.02 0.02 0.02 0.03 0.02 0.02 0.02 0.03 0.04 0.04 0.05 0.06 0.07 0.07 0.07 0.06 0.05 0.04 0.05 0.04 0.05 0.06 0.06 0.05 0.02 0.01 0.02 0.02
0.00 0.00 0.00 0.00 0.00 0.00 0.01 0.02 0.01 0.00 0.00 0.00 0.01 0.01 0.01 0.01 0.00 0.00 0.01 0.03 0.04 0.03 0.02 0.02 0.01 0.02 0.02 0.02 0.02 0.03 0.03 0.04 0.05 0.06 0.08 0.07 0.06 0.06 0.06 0.06 0.05 0.06 0.07 0.06 0.05 0.04 0.02 0.02 0.02
0.00 0.00 0.00 0.00 0.00 0.00 0.01 0.01 0.01 0.01 0.00 0.00 0.01 0.01 0.01 0.01 0.00 0.00 0.01 0.03 0.03 0.03 0.02 0.01 0.01 0.01 0.01 0.02 0.02 0.02 0.03 0.04 0.05 0.06 0.08 0.08 0.06 0.05 0.05 0.04 0.05 0.06 0.06 0.06 0.04 0.04 0.03 0.03 0.02
0.00 0.00 0.00 0.00 0.00 0.00 0.00 0.01 0.01 0.00 0.01 0.01 0.01 0.01 0.01 0.01 0.01 0.01 0.01 0.02 0.03 0.04 0.03 0.02 0.01 0.01 0.01 0.02 0.02 0.02 0.06 0.06 0.05 0.05 0.07 0.07 0.05 0.03 0.03 0.03 0.04 0.04 0.04 0.05 0.04 0.04 0.05 0.04 0.04
0.00 0.00 0.00 0.00 0.00 0.00 0.00 0.00 0.01 0.01 0.01 0.02 0.01 0.01 0.01 0.01 0.01 0.01 0.01 0.02 0.03 0.04 0.03 0.02 0.02 0.01 0.02 0.02 0.02 0.02 0.05 0.07 0.05 0.05 0.07 0.08 0.05 0.02 0.01 0.02 0.03 0.03 0.03 0.03 0.02 0.03 0.05 0.04 0.03
0.00 0.00 0.00 0.00 0.00 0.00 0.00 0.00 0.01 0.01 0.02 0.02 0.02 0.02 0.02 0.01 0.01 0.01 0.01 0.02 0.03 0.03 0.03 0.02 0.03 0.02 0.02 0.02 0.02 0.02 0.04 0.04 0.05 0.05 0.07 0.08 0.06 0.02 0.01 0.02 0.03 0.02 0.03 0.03 0.02 0.02 0.03 0.03 0.04
MSLP
1010.06 1010.99 1012.11 1013.28 1014.37 1015.26 1015.87 1016.19 1016.26 1016.15 1015.97 1015.81 1015.72 1015.71 1015.76 1015.78 1015.71 1015.48 1015.08 1014.53 1013.91 1013.31 1012.80 1012.47 1012.33 1012.37 1012.53 1012.74 1012.93 1013.07 1013.13 1013.13 1013.11 1013.10 1013.15 1013.26 1013.41 1013.57 1013.70 1013.75 1013.74 1013.65 1013.53 1013.42 1013.36 1013.38 1013.49 1013.67 1013.90
1010.61 1011.68 1012.87 1014.02 1015.02 1015.75 1016.18 1016.31 1016.22 1015.99 1015.75 1015.57 1015.51 1015.55 1015.64 1015.71 1015.66 1015.45 1015.06 1014.52 1013.92 1013.33 1012.86 1012.57 1012.47 1012.54 1012.73 1012.95 1013.16 1013.31 1013.38 1013.39 1013.39 1013.42 1013.50 1013.64 1013.81 1013.99 1014.12 1014.18 1014.15 1014.06 1013.92 1013.79 1013.71 1013.70 1013.78 1013.94 1014.15
1011.24 1012.41 1013.61 1014.70 1015.57 1016.13 1016.37 1016.33 1016.10 1015.79 1015.51 1015.35 1015.32 1015.42 1015.56 1015.66 1015.63 1015.43 1015.04 1014.52 1013.93 1013.38 1012.96 1012.71 1012.66 1012.77 1012.99 1013.23 1013.45 1013.59 1013.67 1013.69 1013.70 1013.74 1013.84 1013.99 1014.17 1014.35 1014.48 1014.54 1014.51 1014.42 1014.28 1014.15 1014.07 1014.06 1014.12 1014.26 1014.45
1011.93 1013.15 1014.32 1015.31 1016.03 1016.42 1016.49 1016.31 1015.99 1015.64 1015.37 1015.25 1015.28 1015.43 1015.60 1015.72 1015.70 1015.49 1015.10 1014.58 1014.01 1013.50 1013.12 1012.93 1012.92 1013.07 1013.31 1013.56 1013.78 1013.92 1013.99 1014.01 1014.02 1014.06 1014.15 1014.29 1014.47 1014.64 1014.77 1014.83 1014.82 1014.74 1014.63 1014.52 1014.45 1014.45 1014.52 1014.65 1014.82
1012.64 1013.85 1014.96 1015.83 1016.40 1016.64 1016.58 1016.31 1015.95 1015.61 1015.39 1015.33 1015.43 1015.62 1015.83 1015.95 1015.91 1015.68 1015.27 1014.75 1014.21 1013.73 1013.39 1013.24 1013.28 1013.45 1013.69 1013.94 1014.15 1014.27 1014.32 1014.33 1014.33 1014.36 1014.44 1014.57 1014.74 1014.90 1015.02 1015.09 1015.09 1015.04 1014.96 1014.90 1014.86 1014.89 1014.97 1015.10 1015.26
1013.30 1014.47 1015.49 1016.24 1016.67 1016.79 1016.66 1016.36 1016.01 1015.73 1015.59 1015.61 1015.77 1016.01 1016.22 1016.33 1016.27 1016.01 1015.58 1015.06 1014.53 1014.08 1013.78 1013.66 1013.72 1013.89 1014.13 1014.36 1014.54 1014.63 1014.67 1014.66 1014.64 1014.66 1014.73 1014.84 1014.99 1015.14 1015.26 1015.33 1015.35 1015.33 1015.30 1015.28 1015.29 1015.34 1015.44 1015.58 1015.73
1013.86 1014.96 1015.87 1016.50 1016.83 1016.88 1016.71 1016.43 1016.15 1015.96 1015.92 1016.03 1016.26 1016.52 1016.74 1016.83 1016.73 1016.44 1016.00 1015.48 1014.97 1014.56 1014.28 1014.18 1014.24 1014.41 1014.62 1014.81 1014.95 1015.02 1015.02 1015.00 1014.97 1014.98 1015.03 1015.13 1015.26 1015.39 1015.50 1015.57 1015.61 1015.62 1015.62 1015.65 1015.70 1015.79 1015.91 1016.05 1016.20
1014.29 1015.30 1016.09 1016.62 1016.87 1016.88 1016.73 1016.52 1016.33 1016.25 1016.32 1016.51 1016.79 1017.07 1017.28 1017.34 1017.22 1016.92 1016.48 1015.98 1015.50 1015.12 1014.87 1014.79 1014.84 1014.98 1015.14 1015.29 1015.39 1015.42 1015.41 1015.36 1015.33 1015.33 1015.37 1015.45 1015.56 1015.67 1015.76 1015.83 1015.87 1015.90 1015.93 1015.99 1016.07 1016.19 1016.33 1016.48 1016.63
1014.59 1015.50 1016.19 1016.63 1016.83 1016.84 1016.73 1016.60 1016.52 1016.55 1016.71 1016.97 1017.28 1017.57 1017.77 1017.81 1017.67 1017.37 1016.96 1016.50 1016.07 1015.73 1015.52 1015.45 1015.48 1015.59 1015.71 1015.80 1015.86 1015.86 1015.81 1015.76 1015.72 1015.71 1015.75 1015.81 1015.90 1015.98 1016.05 1016.09 1016.13 1016.16 1016.21 1016.28 1016.39 1016.54 1016.70 1016.87 1017.02
1014.80 1015.61 1016.20 1016.57 1016.75 1016.77 1016.73 1016.68 1016.70 1016.83 1017.05 1017.36 1017.68 1017.96 1018.14 1018.16 1018.03 1017.76 1017.39 1017.00 1016.64 1016.36 1016.19 1016.12 1016.14 1016.21 1016.28 1016.33 1016.34 1016.30 1016.24 1016.18 1016.14 1016.12 1016.15 1016.19 1016.25 1016.30 1016.34 1016.36 1016.38 1016.40 1016.46 1016.55 1016.68 1016.84 1017.03 1017.22 1017.39
1014.98 1015.69 1016.21 1016.54 1016.70 1016.76 1016.77 1016.80 1016.90 1017.09 1017.35 1017.67 1017.98 1018.23 1018.38 1018.40 1018.29 1018.06 1017.76 1017.45 1017.17 1016.96 1016.83 1016.78 1016.78 1016.82 1016.84 1016.84 1016.81 1016.75 1016.67 1016.60 1016.55 1016.52 1016.53 1016.55 1016.58 1016.60 1016.61 1016.60 1016.60 1016.63 1016.69 1016.79 1016.95 1017.14 1017.36 1017.58 1017.78
1015.19 1015.84 1016.30 1016.59 1016.76 1016.85 1016.92 1017.01 1017.16 1017.37 1017.64 1017.93 1018.20 1018.42 1018.54 1018.55 1018.46 1018.29 1018.07 1017.84 1017.64 1017.49 1017.41 1017.37 1017.36 1017.36 1017.35 1017.31 1017.24 1017.15 1017.06 1016.97 1016.91 1016.88 1016.87 1016.87 1016.87 1016.85 1016.84 1016.82 1016.81 1016.84 1016.91 1017.04 1017.23 1017.46 1017.72 1017.99 1018.24
1015.50 1016.09 1016.51 1016.79 1016.97 1017.09 1017.21 1017.34 1017.51 1017.72 1017.97 1018.21 1018.42 1018.58 1018.67 1018.68 1018.61 1018.48 1018.33 1018.18 1018.05 1017.96 1017.90 1017.86 1017.84 1017.81 1017.77 1017.69 1017.60 1017.49 1017.38 1017.29 1017.21 1017.16 1017.12 1017.10 1017.07 1017.04 1017.01 1016.99 1016.99 1017.04 1017.14 1017.31 1017.55 1017.83 1018.15 1018.48 1018.79
1015.91 1016.45 1016.85 1017.13 1017.33 1017.50 1017.65 1017.81 1017.98 1018.17 1018.37 1018.55 1018.70 1018.80 1018.84 1018.84 1018.78 1018.69 1018.59 1018.49 1018.40 1018.33 1018.28 1018.24 1018.20 1018.15 1018.07 1017.98 1017.87 1017.75 1017.63 1017.52 1017.43 1017.35 1017.29 1017.24 1017.19 1017.15 1017.12 1017.12 1017.15 1017.24 1017.40 1017.63 1017.92 1018.27 1018.66 1019.06 1019.45
1016.38 1016.89 1017.28 1017.57 1017.81 1018.01 1018.19 1018.37 1018.55 1018.71 1018.86 1018.97 1019.06 1019.10 1019.11 1019.08 1019.02 1018.95 1018.87 1018.78 1018.71 1018.64 1018.58 1018.51 1018.45 1018.37 1018.28 1018.18 1018.06 1017.94 1017.81 1017.69 1017.58 1017.48 1017.39 1017.31 1017.25 1017.22 1017.20 1017.23 1017.32 1017.46 1017.68 1017.98 1018.34 1018.76 1019.22 1019.70 1020.17
1016.86 1017.34 1017.72 1018.04 1018.31 1018.56 1018.78 1018.98 1019.16 1019.29 1019.39 1019.46 1019.48 1019.48 1019.45 1019.40 1019.33 1019.26 1019.17 1019.08 1018.99 1018.89 1018.80 1018.71 1018.62 1018.52 1018.43 1018.33 1018.22 1018.10 1017.97 1017.84 1017.71 1017.59 1017.47 1017.38 1017.31 1017.28 1017.29 1017.36 1017.50 1017.71 1017.99 1018.35 1018.78 1019.27 1019.80 1020.34 1020.87
1017.26 1017.71 1018.10 1018.45 1018.77 1019.06 1019.33 1019.55 1019.73 1019.85 1019.92 1019.95 1019.94 1019.90 1019.84 1019.78 1019.70 1019.61 1019.50 1019.39 1019.26 1019.12 1018.99 1018.86 1018.75 1018.65 1018.56 1018.48 1018.39 1018.29 1018.17 1018.04 1017.89 1017.75 1017.61 1017.49 1017.42 1017.39 1017.43 1017.54 1017.73 1017.99 1018.33 1018.74 1019.22 1019.75 1020.32 1020.91 1021.50
1017.52 1017.96 1018.36 1018.74 1019.11 1019.45 1019.76 1020.02 1020.20 1020.32 1020.37 1020.38 1020.34 1020.29 1020.23 1020.15 1020.07 1019.96 1019.84 1019.69 1019.52 1019.35 1019.17 1019.02 1018.90 1018.80 1018.73 1018.68 1018.62 1018.55 1018.45 1018.32 1018.17 1018.01 1017.85 1017.72 1017.64 1017.62 1017.68 1017.82 1018.04 1018.34 1018.71 1019.14 1019.63 1020.18 1020.76 1021.37 1021.98
1017.61 1018.03 1018.46 1018.88 1019.31 1019.71 1020.06 1020.34 1020.53 1020.64 1020.69 1020.68 1020.64 1020.59 1020.53 1020.46 1020.39 1020.28 1020.15 1019.98 1019.78 1019.58 1019.38 1019.21 1019.09 1019.01 1018.97 1018.96 1018.95 1018.91 1018.84 1018.73 1018.58 1018.41 1018.24 1018.10 1018.01 1018.00 1018.06 1018.22 1018.45 1018.75 1019.12 1019.54 1020.02 1020.53 1021.09 1021.68 1022.29
1017.54 1017.97 1018.43 1018.91 1019.38 1019.83 1020.21 1020.51 1020.71 1020.81 1020.84 1020.82 1020.79 1020.74 1020.71 1020.66 1020.61 1020.52 1020.40 1020.23 1020.03 1019.82 1019.61 1019.45 1019.34 1019.30 1019.30 1019.33 1019.36 1019.37 1019.34 1019.25 1019.12 1018.95 1018.79 1018.64 1018.55 1018.54 1018.60 1018.75 1018.97 1019.26 1019.59 1019.97 1020.38 1020.84 1021.33 1021.86 1022.42
1017.35 1017.82 1018.32 1018.86 1019.39 1019.87 1020.28 1020.58 1020.76 1020.84 1020.85 1020.82 1020.78 1020.75 1020.74 1020.74 1020.72 1020.67 1020.57 1020.43 1020.25 1020.05 1019.87 1019.72 1019.65 1019.63 1019.68 1019.76 1019.84 1019.90 1019.91 1019.86 1019.75 1019.61 1019.46 1019.32 1019.24 1019.23 1019.29 1019.42 1019.62 1019.86 1020.13 1020.44 1020.76 1021.12 1021.52 1021.96 1022.44
1017.14 1017.65 1018.22 1018.81 1019.39 1019.91 1020.32 1020.60 1020.75 1020.80 1020.77 1020.71 1020.67 1020.65 1020.66 1020.69 1020.72 1020.72 1020.67 1020.58 1020.43 1020.27 1020.12 1020.01 1019.97 1019.99 1020.07 1020.20 1020.33 1020.43 1020.49 1020.48 1020.41 1020.31 1020.19 1020.09 1020.03 1020.02 1020.08 1020.20 1020.36 1020.55 1020.76 1020.98 1021.20 1021.45 1021.73 1022.05 1022.43
1016.98 1017.54 1018.18 1018.83 1019.45 1019.98 1020.38 1020.63 1020.74 1020.73 1020.66 1020.57 1020.50 1020.48 1020.51 1020.58 1020.65 1020.71 1020.72 1020.67 1020.59 1020.47 1020.36 1020.29 1020.27 1020.33 1020.44 1020.60 1020.77 1020.91 1021.02 1021.06 1021.05 1021.00 1020.93 1020.87 1020.85 1020.87 1020.94 1021.05 1021.18 1021.32 1021.47 1021.60 1021.73 1021.87 1022.03 1022.23 1022.50
1016.90 1017.53 1018.23 1018.94 1019.59 1020.12 1020.50 1020.71 1020.76 1020.69 1020.57 1020.43 1020.34 1020.31 1020.35 1020.45 1020.56 1020.67 1020.73 1020.75 1020.71 1020.64 1020.57 1020.53 1020.55 1020.62 1020.76 1020.94 1021.13 1021.31 1021.46 1021.56 1021.61 1021.63 1021.63 1021.63 1021.65 1021.71 1021.80 1021.91 1022.03 1022.15 1022.24 1022.32 1022.37 1022.42 1022.48 1022.57 1022.73
1016.94 1017.63 1018.38 1019.11 1019.78 1020.30 1020.65 1020.82 1020.82 1020.70 1020.53 1020.36 1020.24 1020.20 1020.25 1020.36 1020.51 1020.65 1020.76 1020.82 1020.83 1020.80 1020.77 1020.75 1020.79 1020.87 1021.02 1021.21 1021.43 1021.64 1021.83 1021.98 1022.10 1022.18 1022.25 1022.32 1022.41 1022.51 1022.63 1022.76 1022.89 1023.00 1023.07 1023.11 1023.13 1023.12 1023.11 1023.12 1023.18
1017.08 1017.80 1018.57 1019.32 1019.98 1020.48 1020.80 1020.93 1020.89 1020.74 1020.54 1020.35 1020.23 1020.19 1020.24 1020.36 1020.53 1020.70 1020.84 1020.93 1020.97 1020.98 1020.97 1020.97 1021.02 1021.11 1021.26 1021.46 1021.69 1021.92 1022.15 1022.35 1022.52 1022.68 1022.82 1022.96 1023.10 1023.26 1023.42 1023.58 1023.72 1023.84 1023.93 1023.97 1023.98 1023.95 1023.91 1023.88 1023.86
1017.27 1018.00 1018.77 1019.50 1020.13 1020.60 1020.89 1020.99 1020.94 1020.78 1020.58 1020.41 1020.29 1020.27 1020.33 1020.47 1020.65 1020.83 1020.99 1021.11 1021.17 1021.20 1021.21 1021.23 1021.28 1021.37 1021.53 1021.72 1021.96 1022.21 1022.46 1022.71 1022.94 1023.15 1023.36 1023.55 1023.75 1023.95 1024.15 1024.34 1024.51 1024.66 1024.78 1024.85 1024.89 1024.89 1024.86 1024.81 1024.76
1017.48 1018.19 1018.92 1019.61 1020.19 1020.62 1020.87 1020.97 1020.92 1020.79 1020.63 1020.49 1020.41 1020.42 1020.51 1020.67 1020.86 1021.06 1021.22 1021.35 1021.43 1021.47 1021.50 1021.53 1021.59 1021.70 1021.85 1022.05 1022.29 1022.56 1022.84 1023.11 1023.39 1023.65 1023.90 1024.14 1024.38 1024.61 1024.84 1025.06 1025.26 1025.44 1025.60 1025.72 1025.81 1025.86 1025.87 1025.84 1025.79
1017.69 1018.34 1019.00 1019.61 1020.12 1020.50 1020.73 1020.82 1020.81 1020.73 1020.63 1020.57 1020.56 1020.62 1020.75 1020.93 1021.14 1021.34 1021.51 1021.65 1021.74 1021.80 1021.85 1021.90 1021.97 1022.09 1022.26 1022.47 1022.72 1023.00 1023.29 1023.60 1023.90 1024.19 1024.47 1024.75 1025.01 1025.26 1025.50 1025.73 1025.96 1026.17 1026.37 1026.54 1026.69 1026.80 1026.87 1026.89 1026.87
1017.87 1018.44 1019.00 1019.51 1019.94 1020.25 1020.46 1020.56 1020.59 1020.58 1020.58 1020.60 1020.68 1020.81 1020.99 1021.21 1021.43 1021.64 1021.82 1021.96 1022.07 1022.15 1022.22 1022.30 1022.40 1022.54 1022.73 1022.95 1023.21 1023.51 1023.82 1024.14 1024.46 1024.78 1025.08 1025.37 1025.64 1025.90 1026.15 1026.38 1026.61 1026.84 1027.07 1027.29 1027.49 1027.66 1027.79 1027.87 1027.90
Thickness
5793 5793 5791 5780 5759 5739 5733 5742 5750 5751 5754 5761 5764 5761 5754 5749 5745 5742 5761 5770 5770 5769 5769 5769 5769 5769 5768 5767 5767 5766 5765 5765 5764 5764 5764 5764 5764 5764 5764 5763 5763 5762 5762 5761 5761 5760 5760 5759 5759
5793 5792 5783 5767 5743 5725 5731 5745 5749 5754 5760 5765 5764 5760 5755 5752 5757 5759 5764 5768 5770 5769 5768 5768 5768 5767 5767 5766 5765 5765 5764 5763 5763 5762 5762 5762 5762 5762 5761 5761 5761 5760 5760 5759 5759 5758 5758 5757 5756
5792 5789 5770 5752 5737 5728 5735 5748 5752 5760 5766 5765 5759 5758 5755 5753 5759 5761 5766 5769 5769 5768 5767 5767 5767 5766 5765 5765 5764 5763 5763 5762 5761 5760 5760 5760 5760 5759 5759 5759 5758 5758 5757 5757 5756 5756 5755 5754 5754
5785 5774 5762 5744 5735 5740 5746 5752 5757 5758 5763 5764 5759 5752 5756 5762 5764 5765 5768 5769 5767 5766 5766 5766 5765 5764 5764 5763 5762 5762 5761 5760 5759 5758 5758 5757 5757 5757 5756 5756 5756 5755 5755 5754 5754 5753 5753 5752 5751
5779 5761 5744 5733 5736 5745 5751 5757 5760 5756 5756 5758 5756 5748 5750 5761 5767 5767 5767 5766 5765 5764 5764 5764 5763 5762 5762 5761 5760 5760 5759 5758 5757 5756 5755 5755 5754 5754 5754 5753 5753 5752 5752 5751 5751 5750 5750 5749 5748
5763 5752 5731 5725 5734 5744 5752 5758 5758 5754 5754 5756 5753 5747 5748 5760 5762 5763 5764 5763 5763 5762 5761 5761 5760 5760 5759 5759 5758 5757 5757 5756 5754 5753 5753 5752 5752 5751 5751 5751 5750 5749 5749 5748 5748 5747 5746 5746 5745
5755 5742 5730 5731 5732 5739 5750 5759 5755 5752 5751 5753 5755 5745 5748 5755 5760 5761 5761 5760 5760 5759 5758 5758 5757 5757 5756 5756 5755 5755 5754 5753 5752 5751 5750 5749 5749 5748 5748 5748 5747 5746 5745 5745 5744 5743 5743 5742 5741
5760 5743 5732 5730 5731 5737 5752 5757 5757 5754 5751 5759 5757 5745 5744 5754 5758 5759 5757 5756 5755 5755 5755 5754 5754 5753 5753 5752 5752 5751 5751 5750 5749 5748 5747 5747 5746 5746 5745 5745 5744 5743 5742 5741 5741 5740 5739 5738 5737
5762 5735 5725 5731 5734 5740 5752 5752 5755 5759 5754 5753 5754 5752 5754 5757 5756 5753 5751 5750 5750 5751 5752 5751 5750 5750 5749 5749 5749 5748 5747 5746 5746 5745 5744 5744 5743 5743 5742 5741 5741 5740 5739 5738 5737 5736 5735 5734 5733
5749 5727 5734 5744 5746 5746 5749 5750 5750 5749 5745 5744 5747 5751 5754 5753 5751 5747 5745 5744 5745 5746 5748 5748 5748 5747 5746 5746 5745 5745 5744 5743 5742 5742 5741 5740 5740 5739 5738 5738 5737 5736 5736 5734 5733 5732 5731 5730 5728
5748 5736 5744 5749 5753 5752 5748 5748 5751 5743 5737 5741 5743 5744 5747 5747 5745 5744 5743 5743 5743 5745 5745 5746 5745 5744 5743 5742 5742 5741 5741 5740 5739 5738 5738 5737 5736 5735 5735 5734 5733 5732 5731 5730 5729 5728 5727 5725 5724
5745 5745 5748 5749 5754 5751 5748 5747 5744 5743 5744 5751 5750 5748 5745 5743 5742 5741 5741 5741 5742 5742 5743 5744 5743 5742 5741 5739 5739 5738 5737 5737 5736 5735 5734 5733 5732 5731 5730 5729 5728 5728 5727 5726 5724 5723 5722 5721 5719
5741 5743 5748 5750 5750 5749 5746 5743 5742 5741 5748 5750 5748 5744 5741 5741 5741 5741 5741 5741 5740 5740 5740 5741 5741 5740 5738 5737 5736 5735 5735 5734 5733 5732 5731 5730 5729 5728 5727 5726 5725 5723 5723 5721 5720 5719 5718 5716 5715
5740 5741 5742 5744 5745 5745 5739 5738 5738 5739 5744 5743 5741 5739 5739 5739 5739 5738 5738 5737 5738 5738 5739 5739 5738 5738 5736 5735 5734 5733 5733 5732 5730 5729 5729 5727 5726 5725 5723 5722 5721 5719 5718 5717 5716 5714 5713 5712 5711
5742 5734 5733 5736 5738 5739 5736 5726 5730 5738 5739 5736 5736 5736 5736 5736 5737 5736 5737 5737 5737 5736 5737 5736 5736 5735 5734 5733 5732 5731 5730 5728 5727 5726 5725 5724 5723 5722 5721 5718 5717 5715 5714 5713 5712 5710 5709 5707 5706
5732 5720 5713 5726 5732 5734 5727 5712 5729 5736 5734 5730 5731 5731 5732 5733 5734 5735 5736 5736 5735 5735 5734 5734 5735 5732 5731 5730 5729 5728 5726 5725 5724 5723 5722 5721 5720 5719 5717 5715 5713 5712 5711 5709 5708 5706 5704 5702 5700
5712 5704 5706 5716 5728 5728 5721 5714 5726 5732 5730 5727 5727 5727 5728 5729 5731 5733 5734 5734 5734 5732 5731 5730 5731 5729 5728 5727 5726 5724 5723 5721 5721 5720 5719 5718 5717 5716 5714 5712 5710 5709 5707 5706 5704 5701 5699 5697 5695
5702 5702 5704 5707 5720 5720 5714 5714 5722 5726 5726 5724 5725 5724 5724 5725 5729 5732 5732 5732 5732 5730 5729 5728 5727 5726 5725 5724 5722 5720 5719 5718 5717 5716 5716 5715 5714 5712 5711 5708 5707 5706 5704 5701 5699 5697 5695 5693 5691
5710 5704 5701 5707 5719 5715 5710 5711 5718 5722 5722 5721 5720 5720 5721 5724 5728 5729 5729 5729 5728 5727 5726 5725 5723 5722 5721 5719 5717 5715 5714 5713 5712 5713 5712 5711 5710 5709 5707 5706 5704 5702 5700 5697 5695 5693 5690 5687 5687
5709 5701 5700 5707 5716 5713 5707 5708 5715 5719 5719 5721 5720 5719 5720 5721 5723 5724 5725 5724 5724 5723 5722 5721 5720 5719 5718 5716 5715 5713 5711 5710 5709 5708 5708 5707 5707 5706 5704 5702 5700 5698 5696 5693 5691 5689 5685 5683 5682
5706 5701 5700 5702 5707 5707 5704 5700 5708 5715 5718 5720 5721 5720 5720 5720 5719 5720 5721 5721 5720 5719 5719 5719 5717 5716 5715 5714 5712 5710 5707 5705 5704 5704 5704 5704 5703 5702 5701 5699 5697 5695 5693 5690 5688 5687 5684 5679 5678
5699 5711 5708 5703 5693 5685 5693 5677 5698 5705 5709 5714 5716 5716 5717 5718 5719 5718 5718 5718 5717 5717 5717 5716 5714 5713 5712 5711 5709 5707 5703 5700 5700 5700 5700 5700 5699 5698 5697 5695 5693 5691 5689 5687 5685 5684 5682 5679 5675
5707 5712 5706 5700 5692 5682 5685 5677 5686 5700 5702 5709 5713 5715 5716 5717 5717 5716 5716 5717 5716 5715 5714 5712 5711 5709 5709 5707 5706 5703 5700 5699 5698 5697 5696 5696 5695 5694 5694 5692 5690 5688 5686 5684 5682 5681 5679 5677 5674
5711 5702 5694 5684 5677 5668 5679 5674 5677 5689 5700 5707 5713 5714 5715 5715 5714 5714 5714 5714 5712 5712 5711 5709 5707 5705 5705 5703 5702 5700 5697 5695 5694 5693 5692 5691 5691 5690 5690 5689 5687 5685 5683 5682 5680 5678 5677 5675 5673
5701 5681 5664 5663 5656 5660 5677 5673 5678 5699 5706 5708 5710 5712 5713 5713 5711 5709 5709 5709 5708 5707 5706 5705 5703 5701 5700 5699 5698 5697 5695 5693 5691 5690 5690 5688 5687 5687 5686 5686 5684 5683 5681 5680 5678 5676 5674 5672 5670
5692 5683 5660 5653 5650 5656 5671 5668 5684 5702 5707 5709 5710 5710 5709 5708 5707 5706 5706 5705 5704 5703 5702 5701 5699 5698 5697 5696 5695 5694 5693 5691 5690 5689 5688 5687 5686 5685 5684 5683 5682 5680 5679 5677 5675 5673 5671 5670 5668
5687 5677 5678 5660 5657 5652 5659 5671 5688 5700 5701 5703 5704 5703 5701 5702 5703 5702 5702 5701 5700 5699 5699 5698 5696 5695 5694 5693 5692 5691 5690 5689 5688 5687 5686 5685 5684 5683 5682 5681 5679 5677 5676 5675 5673 5670 5669 5667 5665
5693 5679 5664 5655 5646 5642 5654 5662 5669 5685 5690 5694 5695 5696 5696 5697 5697 5698 5697 5697 5696 5696 5695 5694 5693 5692 5691 5689 5689 5688 5687 5686 5685 5684 5683 5683 5682 5681 5679 5678 5675 5674 5673 5671 5669 5667 5666 5664 5662
5681 5675 5663 5651 5649 5639 5639 5656 5684 5685 5689 5689 5691 5693 5692 5692 5692 5692 5692 5692 5691 5690 5690 5689 5688 5687 5686 5685 5685 5684 5683 5683 5682 5681 5681 5680 5679 5677 5676 5674 5672 5671 5669 5668 5666 5664 5663 5661 5659
5685 5677 5663 5652 5646 5641 5637 5653 5689 5687 5688 5688 5688 5689 5689 5689 5688 5688 5687 5686 5686 5685 5684 5684 5683 5683 5682 5682 5680 5680 5679 5679 5678 5677 5677 5676 5675 5673 5672 5670 5669 5667 5666 5664 5662 5661 5659 5657 5655